Hourly Weather Cendrowice

Today, 19 June, Saturday

Time Temperature Precipitation Wind Pressure Humidity
00:00 +19°C° 0 mm 3 mps 753 mmHg 83%
01:00 +19°C° 0 mm 3 mps 753 mmHg 85%
02:00 +19°C° 0 mm 3 mps 753 mmHg 86%
03:00 +18°C° 0 mm 2 mps 753 mmHg 87%
04:00 +18°C° 0 mm 2 mps 753 mmHg 89%
05:00 +20°C° 0 mm 3 mps 753 mmHg 82%
06:00 +22°C° 0 mm 3 mps 753 mmHg 75%
07:00 +24°C° 0 mm 3 mps 753 mmHg 68%
08:00 +26°C° 0 mm 4 mps 753 mmHg 64%
09:00 +27°C° 0 mm 4 mps 753 mmHg 61%
10:00 +29°C° 0 mm 4 mps 752 mmHg 57%
11:00 +29°C° 0 mm 4 mps 752 mmHg 55%
12:00 +30°C° 0 mm 4 mps 752 mmHg 52%
13:00 +32°C° 0 mm 4 mps 752 mmHg 50%
14:00 +30°C° 0 mm 4 mps 751 mmHg 53%
15:00 +30°C° 0 mm 3 mps 751 mmHg 56%
16:00 +29°C° 0 mm 3 mps 751 mmHg 58%
17:00 +28°C° 0 mm 3 mps 751 mmHg 63%
18:00 +27°C° 0 mm 4 mps 751 mmHg 68%
19:00 +26°C° 0 mm 4 mps 751 mmHg 73%
20:00 +25°C° 0 mm 3 mps 751 mmHg 76%
21:00 +24°C° 0 mm 3 mps 751 mmHg 79%
22:00 +22°C° 0 mm 3 mps 751 mmHg 81%
23:00 +21°C° 0 mm 3 mps 751 mmHg 85%

Tomorrow, 20 June, Sunday

Time Temperature Precipitation Wind Pressure Humidity
00:00 +20°C° 0 mm 3 mps 751 mmHg 88%
01:00 +19°C° 0 mm 3 mps 751 mmHg 92%
02:00 +19°C° 0 mm 3 mps 751 mmHg 93%
03:00 +18°C° 0 mm 3 mps 751 mmHg 94%
04:00 +18°C° 0 mm 2 mps 750 mmHg 95%
05:00 +20°C° 0 mm 3 mps 750 mmHg 87%
06:00 +21°C° 0 mm 3 mps 751 mmHg 79%
07:00 +23°C° 0 mm 4 mps 751 mmHg 72%
08:00 +25°C° 0 mm 4 mps 751 mmHg 66%
09:00 +26°C° 0 mm 4 mps 751 mmHg 60%
10:00 +28°C° 0 mm 4 mps 751 mmHg 54%
11:00 +28°C° 0 mm 4 mps 750 mmHg 52%
12:00 +29°C° 0 mm 4 mps 750 mmHg 50%
13:00 +30°C° 0 mm 5 mps 749 mmHg 48%
14:00 +30°C° 0 mm 5 mps 749 mmHg 50%
15:00 +30°C° 0 mm 4 mps 749 mmHg 52%
16:00 +30°C° 0 mm 4 mps 748 mmHg 54%
17:00 +28°C° 0.1 mm 4 mps 748 mmHg 62%
18:00 +27°C° 0.1 mm 4 mps 748 mmHg 70%
19:00 +26°C° 0.1 mm 4 mps 748 mmHg 78%
20:00 +24°C° 0 mm 3 mps 748 mmHg 82%
21:00 +22°C° 0 mm 3 mps 748 mmHg 86%
22:00 +21°C° 0 mm 3 mps 748 mmHg 91%
23:00 +21°C° 0 mm 3 mps 747 mmHg 91%

Day after tomorrow, 21 June, Monday

Time Temperature Precipitation Wind Pressure Humidity
00:00 +20°C° 0 mm 3 mps 747 mmHg 92%
01:00 +20°C° 0 mm 3 mps 747 mmHg 93%
02:00 +19°C° 0 mm 3 mps 747 mmHg 93%
03:00 +19°C° 0 mm 3 mps 747 mmHg 93%
04:00 +19°C° 0 mm 3 mps 747 mmHg 94%
05:00 +20°C° 0 mm 4 mps 746 mmHg 88%
06:00 +21°C° 0 mm 4 mps 746 mmHg 82%
07:00 +23°C° 0 mm 5 mps 746 mmHg 76%
08:00 +25°C° 0 mm 5 mps 746 mmHg 71%
09:00 +27°C° 0 mm 5 mps 746 mmHg 66%
10:00 +28°C° 0 mm 6 mps 746 mmHg 60%
11:00 +28°C° 0 mm 5 mps 746 mmHg 60%
12:00 +28°C° 0 mm 4 mps 746 mmHg 60%
13:00 +28°C° 0 mm 4 mps 746 mmHg 60%
14:00 +29°C° 0 mm 4 mps 745 mmHg 59%
15:00 +29°C° 0 mm 4 mps 745 mmHg 58%
16:00 +29°C° 0 mm 4 mps 745 mmHg 57%
17:00 +28°C° 0.2 mm 4 mps 745 mmHg 63%
18:00 +27°C° 0.2 mm 4 mps 745 mmHg 69%
19:00 +26°C° 0.2 mm 3 mps 745 mmHg 75%
20:00 +25°C° 0 mm 3 mps 745 mmHg 79%
21:00 +24°C° 0 mm 3 mps 745 mmHg 84%
22:00 +21°C° 0 mm 3 mps 745 mmHg 88%
23:00 +21°C° 0.1 mm 3 mps 745 mmHg 90%

22 June, Tuesday

Time Temperature Precipitation Wind Pressure Humidity
00:00 +21°C° 0.1 mm 2 mps 746 mmHg 91%
01:00 +20°C° 0.1 mm 2 mps 746 mmHg 93%
02:00 +20°C° 0 mm 2 mps 746 mmHg 93%
03:00 +20°C° 0 mm 2 mps 746 mmHg 93%
04:00 +20°C° 0 mm 2 mps 746 mmHg 93%
05:00 +21°C° 0 mm 2 mps 746 mmHg 88%
06:00 +24°C° 0 mm 2 mps 746 mmHg 82%
07:00 +25°C° 0 mm 3 mps 747 mmHg 77%
08:00 +27°C° 0.1 mm 3 mps 747 mmHg 70%
09:00 +28°C° 0.1 mm 3 mps 747 mmHg 64%
10:00 +29°C° 0.1 mm 2 mps 747 mmHg 58%
11:00 +30°C° 0 mm 2 mps 747 mmHg 54%
12:00 +31°C° 0 mm 2 mps 747 mmHg 50%
13:00 +31°C° 0 mm 2 mps 747 mmHg 46%
14:00 +31°C° 0 mm 2 mps 747 mmHg 48%
15:00 +30°C° 0 mm 2 mps 747 mmHg 50%
16:00 +30°C° 0 mm 2 mps 747 mmHg 53%
17:00 +29°C° 0 mm 2 mps 748 mmHg 59%
18:00 +27°C° 0 mm 2 mps 748 mmHg 65%
19:00 +26°C° 0 mm 3 mps 748 mmHg 71%
20:00 +25°C° 0 mm 2 mps 748 mmHg 72%
21:00 +25°C° 0 mm 2 mps 748 mmHg 73%
22:00 +24°C° 0 mm 2 mps 748 mmHg 75%
23:00 +23°C° 0 mm 2 mps 748 mmHg 77%

23 June, Wednesday

Time Temperature Precipitation Wind Pressure Humidity
00:00 +23°C° 0 mm 1 mps 748 mmHg 80%
01:00 +22°C° 0 mm 1 mps 748 mmHg 83%
02:00 +22°C° 0 mm 1 mps 749 mmHg 85%
03:00 +21°C° 0 mm 1 mps 749 mmHg 86%
04:00 +21°C° 0 mm 1 mps 749 mmHg 87%
05:00 +23°C° 0 mm 1 mps 749 mmHg 81%
06:00 +24°C° 0 mm 2 mps 749 mmHg 76%
07:00 +26°C° 0 mm 2 mps 749 mmHg 70%
08:00 +27°C° 0 mm 2 mps 749 mmHg 65%
09:00 +29°C° 0 mm 2 mps 749 mmHg 60%
10:00 +30°C° 0 mm 2 mps 749 mmHg 56%
11:00 +30°C° 0 mm 2 mps 749 mmHg 52%
12:00 +31°C° 0 mm 2 mps 749 mmHg 49%
13:00 +32°C° 0 mm 1 mps 749 mmHg 46%
14:00 +31°C° 0 mm 1 mps 749 mmHg 49%
15:00 +31°C° 0 mm 1 mps 749 mmHg 51%
16:00 +31°C° 0 mm 1 mps 749 mmHg 53%
17:00 +30°C° 0 mm 1 mps 749 mmHg 57%
18:00 +29°C° 0 mm 1 mps 749 mmHg 61%
19:00 +28°C° 0 mm 1 mps 749 mmHg 64%
20:00 +27°C° 0 mm 1 mps 749 mmHg 66%
21:00 +26°C° 0 mm 1 mps 749 mmHg 68%
22:00 +26°C° 0 mm 1 mps 749 mmHg 70%
23:00 +25°C° 0 mm 1 mps 749 mmHg 71%

24 June, Thursday

Time Temperature Precipitation Wind Pressure Humidity
00:00 +25°C° 0 mm 1 mps 749 mmHg 71%
01:00 +25°C° 0 mm 1 mps 749 mmHg 72%
02:00 +24°C° 0 mm 1 mps 749 mmHg 75%
03:00 +24°C° 0 mm 1 mps 749 mmHg 78%
04:00 +23°C° 0 mm 1 mps 749 mmHg 81%
05:00 +24°C° 0.2 mm 1 mps 749 mmHg 79%
06:00 +25°C° 0.2 mm 1 mps 749 mmHg 77%
07:00 +26°C° 0.2 mm 1 mps 749 mmHg 74%
08:00 +28°C° 0 mm 1 mps 749 mmHg 68%
09:00 +29°C° 0 mm 1 mps 749 mmHg 62%
10:00 +31°C° 0 mm 1 mps 749 mmHg 56%
11:00 +32°C° 0 mm 2 mps 749 mmHg 53%
12:00 +34°C° 0 mm 2 mps 749 mmHg 49%
13:00 +35°C° 0 mm 2 mps 748 mmHg 46%
14:00 +31°C° 2.7 mm 3 mps 748 mmHg 59%
15:00 +28°C° 2.7 mm 4 mps 748 mmHg 71%
16:00 +26°C° 2.7 mm 4 mps 748 mmHg 84%
17:00 +25°C° 1.7 mm 3 mps 748 mmHg 86%
18:00 +24°C° 1.7 mm 3 mps 748 mmHg 88%
19:00 +23°C° 1.7 mm 2 mps 748 mmHg 90%
20:00 +23°C° 0.1 mm 2 mps 749 mmHg 91%
21:00 +21°C° 0.1 mm 2 mps 749 mmHg 92%
22:00 +20°C° 0.1 mm 2 mps 749 mmHg 93%
23:00 +20°C° 0 mm 2 mps 749 mmHg 94%
Show more

We Need Your Consent

Meteoprog and our Service Providers may store and access personal data such as cookies, device identifiers or other similar technologies on your device and process such data to personalise content and ads, as well as provide social media features and to analyse the traffic.

  • Store and/or access information on your device

    Cookies, device identifiers or other information can be stored or accessed on your device for the purposes indicated above.

  • Personalised ads and content, ad and content measurement, audience insights, and products development

    Ads and content can be personalised based on a profile. More data can be added to better personalise ads and content. Ad and content performance can be measured. Insights about the audience who saw the ads and content can be derived. Such data can be used to develop or improve user’s experience, systems and software.

By clicking ‘I Agree’ you will allow the use of indicated cookies, device identifiers, web beacons or other similar technologies. Your settings can be changed in the browser on your device.

For certain purposes, legitimate interests may be relied on, rather than consent. You can read more about this in our Privacy and Cookie Policy.